{"data":{"norad_id":62680,"epoch":"2026-09-19T10:43:09.981984Z","epoch_age_seconds":105443,"freshness":"FRESH","line1":"1 62680U 25009BZ  26262.44664331  .00032875  00000+0  91547-3 0  9990","line2":"2 62680  97.3940 344.2746 0003840 359.1231   1.0006 15.36730975150981","mean_motion":15.36730975,"eccentricity":0.000384,"inclination_deg":97.394,"raan_deg":344.2746,"arg_perigee_deg":359.1231,"mean_anomaly_deg":1.0006,"bstar":0.00091547,"rev_number":15098,"period_min":93.705406048707,"perigee_km":453.15962455778,"apogee_km":458.4080757707,"semimajor_km":6833.9208501642,"source":"CELESTRAK","updated_at":"2026-09-20T09:00:34.723837Z"}}